Regional Weather Roundup
Issued by NWS

Current Version | Previous Version | Text Only | Print | Product List | Glossary On
Versions: 1 2 3 4 5 6 7 8 9 10 11 12 13 14 15 16 17 18 19 20 21 22 23 24 25 26 27 28 29 30 31 32 33 34 35 36 37 38 39 40 41 42 43 44 45 46 47 48 49 50
000
ASUS43 KMKX 252321
RWRWI

WISCONSIN REGIONAL WEATHER ROUNDUP
NATIONAL WEATHER SERVICE MILWAUKEE/SULLIVAN WI
600 PM CDT WED MAY 25 2016

NOTE: "FAIR" INDICATES FEW OR NO CLOUDS BELOW 12,000 FEET WITH NO
SIGNIFICANT WEATHER AND/OR OBSTRUCTIONS TO VISIBILITY.

WIZ001-002-006>008-014>016-023>028-260000-
NORTHWEST WISCONSIN

CITY           SKY/WX    TMP DP  RH WIND       PRES   REMARKS
SUPERIOR ARPT  LGT RAIN  44  44  99 NE16G25   29.94F
ASHLAND        HVY RAIN  49  49 100 S6        29.97R FOG
HAYWARD        HVY RAIN  54  52  93 NE13      29.90R FOG
SIREN          CLOUDY    60  58  94 E5        29.87R
CUMBERLAND     LGT RAIN  63  61  94 NE7       29.84F
RICE LAKE      RAIN      63  60  92 N7        29.86S
CHETEK         RAIN      63  63  99 N7        29.84S
LADYSMITH      LGT RAIN  66  65  94 CALM      29.87S
EAU CLAIRE     RAIN      66  64  93 S7        29.81S FOG
MENOMONIE      CLOUDY    69  67  96 E6        29.82S
NEW RICHMOND   PTSUNNY   70  61  72 S3        29.82S
OSCEOLA        PTSUNNY   71  62  73 S3        29.84S
$$

WIZ003>005-009-010-017-018-260000-
NORTH CENTRAL WISCONSIN

CITY           SKY/WX    TMP DP  RH WIND       PRES   REMARKS
MANITOWISH WTR NOT AVBL
ARBOR VITAE    LGT RAIN  64  61  89 NE5       29.90S
WOODRUFF       LGT RAIN  64  61  89 NE5       29.90S
RHINELANDER    RAIN      65  60  84 E9        29.90F
EAGLE RIVER    LGT RAIN  65  56  71 SE10      29.92R
LAND O LAKES   CLOUDY    71  56  58 SE8       29.94S
PHILLIPS       RAIN      65  63  92 CALM      29.88R
TOMAHAWK       CLOUDY    64  61  91 E6        29.87F FOG
MEDFORD        LGT RAIN  64  64  99 E12G17    29.83F
MERRILL        CLOUDY    65  64  94 E9        29.87F
$$

WIZ029-030-035-036-043>047-260000-
CENTRAL WISCONSIN

CITY           SKY/WX    TMP DP  RH WIND       PRES   REMARKS
WAUSAU         LGT RAIN  66  32  28 E13G22    29.85F
MOSINEE        CLOUDY    64  63  94 E13G18    29.87F
MARSHFIELD     CLOUDY    68  62  81 SE13      29.84S
STEVENS POINT  CLOUDY    64  61  90 E16G24    29.86F
WAUPACA        HVY RAIN  67  67  98 NE7       29.90F
WAUTOMA        CLOUDY    66  63  88 NE9       29.87F
WISC RAPIDS    CLOUDY    68  62  81 VRB3      29.86F
CAMP DOUGLAS   TSTM      68  68 100 W14       29.83F
$$

WIZ011>013-019>022-031-037>040-048>050-260000-
NORTHEAST WISCONSIN

CITY           SKY/WX    TMP DP  RH WIND       PRES   REMARKS
ANTIGO         RAIN      63  62  97 E13       29.93F
SHAWANO        TSTM      67  60  79 E8        29.95R
OCONTO         CLOUDY    60  60 100 E8        29.96S
STURGEON BAY   NOT AVBL
GREEN BAY      CLOUDY    63  59  87 NE13      29.95R
MANITOWOC      CLOUDY    56  53  90 N6        29.95F
APPLETON       RAIN      63  57  82 E9G17     29.92R
CLINTONVILLE   RAIN      64  59  82 E5        29.94R
OSHKOSH        CLOUDY    64  58  80 E9        29.89F
$$

WIZ032>034-041-042-053>061-260000-
SOUTHWEST WISCONSIN

CITY           SKY/WX    TMP DP  RH WIND       PRES   REMARKS
LA CROSSE      MOSUNNY   79  63  57 SW15      29.80F HX  80
SPARTA         CLOUDY    70  67  88 SW3       29.83R
VIROQUA        MOSUNNY   77  62  61 SW18G24   29.84S
BOSCOBEL       PTSUNNY   84  64  50 SW9G20    29.81S HX  85
PRAIRIE DU CHI CLOUDY    80  59  47 S9        29.81F HX  81
PLATTEVILLE    CLOUDY    83  61  47 S17       29.84S HX  83
$$

WIZ056-057-062-063-064-067-068-260000-
SOUTH CENTRAL WISCONSIN

CITY           SKY/WX    TMP DP  RH WIND       PRES   REMARKS
REEDSBURG      PTSUNNY   81  62  53 S6        29.81F HX  82
BARABOO/DELLS  CLOUDY    81  57  44 SW14G20   29.82S HX  81
LONE ROCK      CLOUDY    79  62  56 S7        29.82S HX  80
MINERAL POINT  CLOUDY    81  59  47 SW10G16   29.85R HX  81
MADISON        CLOUDY    76  67  73 E9        29.83F
MIDDLETON      CLOUDY    85  60  43 S14       29.83F HX  85
WATERTOWN      CLOUDY    72  69  92 E13G22    29.87F
MONROE         LGT RAIN  75  55  50 E6G39     29.85R
JANESVILLE     PTSUNNY   79  63  57 SE14G20   29.86S HX  80
$$

WIZ051-052-058>065-066-070>072-260000-
SOUTHEAST WISCONSIN

CITY           SKY/WX    TMP DP  RH WIND       PRES   REMARKS
MILWAUKEE      CLOUDY    55  50  83 NE7       29.90F THUNDER
WAUKESHA       PTSUNNY   66  63  88 E10       29.90F
MILWAUKEE/TIMM HVY RAIN  61  52  72 N6        29.92S
RACINE         LGT RAIN  57  51  80 N5        29.92F
BURLINGTON     DRIZZLE   71  64  78 E5        29.88F
KENOSHA        TSTM      68  65  90 S5        29.92R FOG
FOND DU LAC    CLOUDY    68  63  84 SE9       29.88F
SHEBOYGAN      CLOUDY    54  50  86 NE12      29.93F
WEST BEND      LGT RAIN  63  57  82 E7        29.91S
JUNEAU         CLOUDY    70  65  83 E16G22    29.88F
$$

LSZ147-162-260000-
LAKE SUPERIOR

STATION/POSITION TIME  TEMP    WIND        PRES    WAVE
                       AIR SEA DIR/SP/G            HT/PER
                 (UTC) (F)     (DEG/KT/KT) (MB)    (FT/S)
W MID LAKE BUOY  2250   41 38   60/ 17/ 21 1014.2F   4/ 5
DEVILS ISLAND    2300   44      40/ 18/ 21 1014.3R
PORT WING        2215   41      10/ 25/ 37 1015.2
SAXON HARBOR     2300   47     220/  5/ 11 1012.9R
$$

LMZ867-665-643>646-260000-
LAKE MICHIGAN

STATION/POSITION TIME  TEMP    WIND        PRES    WAVE
                       AIR SEA DIR/SP/G            HT/PER
                 (UTC) (F)     (DEG/KT/KT) (MB)    (FT/S)
CHAMBERS ISLAND  2200   59      40/ 12/ 17 1014.9F
N MID LAKE BUOY  2250   49 45   50/ 10/ 10 1014.4F   1
NORTHPORT PIER   2200   55      90/  6/ 13 1014.9F
SISTER BAY       2220   63      70/ 11/ 22   N/A
ALGOMA LAKESHORE 2247           50/ 13/ 16   N/A
KEWAUNEE LAKESHO 2200           30/  7/ 10 1014.2F
SHEBOYGAN LAKESH 2300   48     360/ 11/ 12 1014.2F
PORT WASHINGTON  2240   54      50/  9/ 11 1014.2F
S MID LAKE BUOY  2250   58 53   90/  8/  8 1012.0F   0
KENOSHA   LAKESH 2300   60     110/  1/  5 1013.5R
$$

TC  - TEMPERATURE IN CELSIUS
VSB - VISIBILITY IN STATUTE MILES
WCI - WIND CHILL INDEX
HX  - HEAT INDEX





USA.gov is the U.S. government's official web portal to all federal, state and local government web resources and services.